Regional Weather Roundup
Issued by NWS

Home | Current Version | Previous Version | Text Only | Print | Product List | Glossary Off
Versions: 1 2 3 4 5 6 7 8 9 10 11 12 13 14 15 16 17 18 19 20 21 22 23 24 25 26 27 28 29 30 31 32 33 34 35 36 37 38 39 40 41 42 43 44 45 46 47 48 49 50

000
ASUS43 KMKX 292011
RWRWI

WISCONSIN REGIONAL WEATHER ROUNDUP
NATIONAL WEATHER SERVICE MILWAUKEE/SULLIVAN WI
300 PM CDT MON AUG 29 2016

NOTE: "FAIR" INDICATES FEW OR NO CLOUDS BELOW 12,000 FEET WITH NO
SIGNIFICANT WEATHER AND/OR OBSTRUCTIONS TO VISIBILITY.

WIZ001-002-006>008-014>016-023>028-292100-
NORTHWEST WISCONSIN

CITY           SKY/WX    TMP DP  RH WIND       PRES   REMARKS
SUPERIOR ARPT  SUNNY     80  68  67 W5        30.12F HX  83
ASHLAND        MOSUNNY   83  66  56 SW8       30.13F HX  85
HAYWARD        SUNNY     83  67  58 S13       30.15F HX  85
SIREN          SUNNY     84  67  55 SW10      30.15R HX  87
CUMBERLAND     CLOUDY    81  68  65 S10G16    30.16S HX  83
RICE LAKE      CLOUDY    82  68  63 S10       30.18S HX  85
CHETEK         NOT AVBL
LADYSMITH      MOSUNNY   83  69  62 S9        30.18S HX  86
EAU CLAIRE     CLOUDY    83  70  64 S10       30.16F HX  87
MENOMONIE      CLOUDY    82  71  68 S12       30.16F HX  87
NEW RICHMOND   MOSUNNY   80  68  66 S10       30.17R HX  82
OSCEOLA        MOSUNNY   83  70  65 S10       30.18S HX  87
$$

WIZ003>005-009-010-017-018-292100-
NORTH CENTRAL WISCONSIN

CITY           SKY/WX    TMP DP  RH WIND       PRES   REMARKS
MANITOWISH WTR NOT AVBL
ARBOR VITAE    CLOUDY    82  70  65 SW6       30.19S HX  86
WOODRUFF       CLOUDY    82  70  65 SW6       30.19S HX  86
RHINELANDER    CLOUDY    84  70  62 W7        30.20S HX  88
EAGLE RIVER    SUNNY     82  66  58 W9        30.18S HX  84
LAND O LAKES   SUNNY     82  64  54 SW7       30.20S HX  83
PHILLIPS       SUNNY     82  71  68 SW7       30.16F HX  86
TOMAHAWK       CLOUDY    79  69  71 S3        30.19R HX  81
MEDFORD        CLOUDY    79  73  80 SW9       30.20S HX  83
MERRILL        CLOUDY    79  70  74 S9        30.19F HX  82
$$

WIZ029-030-035-036-043>047-292100-
CENTRAL WISCONSIN

CITY           SKY/WX    TMP DP  RH WIND       PRES   REMARKS
WAUSAU         MOSUNNY   82  69  64 S9        30.18F HX  85
MOSINEE        NOT AVBL
MARSHFIELD     PTSUNNY   82  70  66 S12       30.19F HX  86
STEVENS POINT  PTSUNNY   82  68  62 CALM      30.19F HX  84
WAUPACA        MOSUNNY   86  69  56 S13       30.18F HX  90
WAUTOMA        CLOUDY    83  72  69 S9        30.19F HX  88
WISC RAPIDS    PTSUNNY   84  69  60 SW16G23   30.19F HX  88
CAMP DOUGLAS   PTSUNNY   81  72  74 S8        30.19F HX  84
$$

WIZ011>013-019>022-031-037>040-048>050-292100-
NORTHEAST WISCONSIN

CITY           SKY/WX    TMP DP  RH WIND       PRES   REMARKS
ANTIGO         CLOUDY    78  70  75 SW10      30.20F HX  80
SHAWANO        PTSUNNY   85  70  62 SW9       30.18F HX  89
OCONTO         NOT AVBL
STURGEON BAY   CLOUDY    79  69  71 S10       30.19F HX  81
GREEN BAY      MOSUNNY   81  71  71 S9G20     30.18F HX  85
MANITOWOC      SUNNY     79  62  56 S10       30.21F HX  80
APPLETON       PTSUNNY   82  66  57 S12       30.18F HX  85
CLINTONVILLE   MOSUNNY   81  68  65 S7        30.18F HX  83
OSHKOSH        MOSUNNY   84  70  62 S10       30.19F HX  88
$$

WIZ032>034-041-042-053>061-292100-
SOUTHWEST WISCONSIN

CITY           SKY/WX    TMP DP  RH WIND       PRES   REMARKS
LA CROSSE      CLOUDY    83  69  62 S12       30.16F HX  86
SPARTA         CLOUDY    80  70  70 S8        30.19F HX  84
VIROQUA        CLOUDY    79  71  77 S7        30.20F HX  82
BOSCOBEL       CLOUDY    83  72  69 E3        30.20F HX  88
PRAIRIE DU CHI CLOUDY    81  70  68 E6        30.18F HX  84
PLATTEVILLE    CLOUDY    82  73  74 E3        30.21F HX  87
$$

WIZ056-057-062-063-064-067-068-292100-
SOUTH CENTRAL WISCONSIN

CITY           SKY/WX    TMP DP  RH WIND       PRES   REMARKS
REEDSBURG      NOT AVBL
BARABOO/DELLS  CLOUDY    81  69  66 S6        30.21F HX  83
LONE ROCK      CLOUDY    81  70  69 S8        30.19F HX  84
MINERAL POINT  MOSUNNY   82  72  69 CALM      30.22F HX  87
MADISON        CLOUDY    81  69  67 S6        30.19F HX  84
MIDDLETON      CLOUDY    82  70  67 SE5       30.21F HX  85
WATERTOWN      PTSUNNY   81  72  74 S6        30.20F HX  85
MONROE         PTSUNNY   82  70  65 NE6       30.21F HX  86
JANESVILLE     NOT AVBL
$$

WIZ051-052-058>065-066-070>072-292100-
SOUTHEAST WISCONSIN

CITY           SKY/WX    TMP DP  RH WIND       PRES   REMARKS
MILWAUKEE      PTSUNNY   82  68  62 E8        30.21F HX  85
WAUKESHA       NOT AVBL
MILWAUKEE/TIMM NOT AVBL
RACINE         MOSUNNY   79  69  71 E7        30.23F HX  81
BURLINGTON     PTSUNNY   80  68  66 E5        30.21F HX  83
KENOSHA        MOSUNNY   81  69  67 E7        30.21F HX  84
FOND DU LAC    MOSUNNY   83  70  64 S8        30.20F HX  87
SHEBOYGAN      SUNNY     81  65  58 S7        30.22F HX  83
WEST BEND      PTSUNNY   81  64  57 SE9       30.21F HX  82
JUNEAU         CLOUDY    81  68  65 SW6       30.22F HX  84
$$

LSZ147-162-292100-
LAKE SUPERIOR

STATION/POSITION TIME  TEMP    WIND        PRES    WAVE
                       AIR SEA DIR/SP/G            HT/PER
                 (UTC) (F)     (DEG/KT/KT) (MB)    (FT/S)
W MID LAKE BUOY  1950   69 68  210/ 10/ 10 1019.2F   1/ 4
DEVILS ISLAND    1900   73     200/  6/  8 1020.0F
PORT WING        1900   73     330/  2/  3 1020.3S
SAXON HARBOR     1940   76      60/  7/  7 1020.0F
$$

LMZ867-665-643>646-292100-
LAKE MICHIGAN

STATION/POSITION TIME  TEMP    WIND        PRES    WAVE
                       AIR SEA DIR/SP/G            HT/PER
                 (UTC) (F)     (DEG/KT/KT) (MB)    (FT/S)
CHAMBERS ISLAND  1900   78     150/  7/ 12 1022.0F
N MID LAKE BUOY  1950   71 71  200/ 12/ 12 1022.0F   1/ 3
NORTHPORT PIER   1900   74     160/  8/ 13 1022.4F
SISTER BAY       1922   81     190/ 13/ 15   N/A
KEWAUNEE LAKESHO 1900   67     180/  9/ 10 1023.3F
SHEBOYGAN LAKESH 2000   70     160/ 10/ 11 1022.7F
PORT WASHINGTON  1900   72      60/  2/  4 1024.7
ATWATER BUOY     2000   72     110/  4/  4   N/A
MILWAUKEE LAKESH 1910   71      60/  1/  1   N/A
S MID LAKE BUOY  1950   76 80  170/  2/  4 1022.7F   1
KENOSHA   LAKESH 2000   72      50/  3/  4 1022.4F
$$

TC  - TEMPERATURE IN CELSIUS
VSB - VISIBILITY IN STATUTE MILES
WCI - WIND CHILL INDEX
HX  - HEAT INDEX





USA.gov is the U.S. government's official web portal to all federal, state and local government web resources and services.